This is the latest recevied weather packets stored in our database for station/object KI7MOQ. If no packets are shown the sender has not sent any weather packets the latest 10 day(s).
| Time | Temp. | Humidity | Pressure | Rain* | Wind** | Luminosity | Snow |
|---|---|---|---|---|---|---|---|
| 1777764906 | 22.22° C | 60% | 1013.8 hPa | 0 mm | - | 280 W/m² | - |
| 1777764604 | 22.22° C | 60% | 1013.8 hPa | 0 mm | - | 223 W/m² | - |
| 1777764300 | 22.22° C | 60% | 1013.8 hPa | 0 mm | - | 317 W/m² | - |
| 1777763997 | 21.67° C | 61% | 1013.9 hPa | 0 mm | - | 157 W/m² | - |
| 1777763694 | 21.67° C | 61% | 1014 hPa | 0 mm | - | 163 W/m² | - |
| 1777763392 | 21.67° C | 61% | 1014 hPa | 0 mm | - | 59 W/m² | - |
| 1777763090 | 21.67° C | 60% | 1014.1 hPa | 0 mm | - | 134 W/m² | - |
| 1777762788 | 21.11° C | 61% | 1014.1 hPa | 0 mm | - | 51 W/m² | - |
| 1777762484 | 21.67° C | 60% | 1014.4 hPa | 0 mm | - | 44 W/m² | - |
| 1777762181 | 21.67° C | 60% | 1014.3 hPa | 0 mm | - | 41 W/m² | - |
| 1777761877 | 21.11° C | 60% | 1014.4 hPa | 0 mm | - | 40 W/m² | - |
| 1777761574 | 20.56° C | 62% | 1014.7 hPa | 0 mm | - | 39 W/m² | - |
| 1777761272 | 20.56° C | 62% | 1014.6 hPa | 0 mm | - | 39 W/m² | - |
| 1777760970 | 20.56° C | 63% | 1014.7 hPa | 0 mm | - | 38 W/m² | - |
| 1777760667 | 20.56° C | 62% | 1015 hPa | 0 mm | - | 38 W/m² | - |
| 1777760363 | 20° C | 62% | 1014.8 hPa | 0 mm | - | 39 W/m² | - |
| 1777760059 | 20.56° C | 63% | 1015 hPa | 0 mm | - | 38 W/m² | - |
| 1777759757 | 20.56° C | 63% | 1015 hPa | 0 mm | - | 68 W/m² | - |
| 1777759452 | 20° C | 62% | 1015.2 hPa | 0 mm | - | 377 W/m² | - |
| 1777759149 | 20° C | 63% | 1015.4 hPa | 0 mm | - | 107 W/m² | - |
| 1777758847 | 20° C | 65% | 1015.4 hPa | 0 mm | - | 116 W/m² | - |
| 1777758543 | 20° C | 64% | 1015.6 hPa | 0 mm | - | 192 W/m² | - |
| 1777758240 | 19.44° C | 65% | 1015.6 hPa | 0 mm | - | 320 W/m² | - |
| 1777757937 | 19.44° C | 65% | 1015.7 hPa | 0 mm | - | 66 W/m² | - |
| 1777757634 | 19.44° C | 65% | 1015.7 hPa | 0 mm | - | 45 W/m² | - |
* Rain latest hour (hover to see other rain measurements)
** Current wind speed in m/s (hover to see current wind gust speed)